Location: Ladrillo (historical)
(32.8195°N, 117.2231°W)
Time: 14:25:43
(UTC+00:00)

NOAA 18 - Visible Passes

Search period start: 20 April 2021 00:00
Search period end: 30 April 2021 00:00
Orbit: 839 x 861 km, 99.0° (Epoch: 19 April)

Date Brightness Start Highest point End Pass type
(mag) Time Alt. Az. Time Alt. Az. Time Alt. Az.
20 Apr 6.9 03:50:36 16° ENE 03:50:48 16° ENE 03:53:55 10° NNE visible
20 Apr 6.3 05:32:36 41° NW 05:32:36 41° NW 05:36:18 10° NNW visible
21 Apr 7.1 03:38:28 12° ENE 03:39:04 12° ENE 03:40:58 10° NE visible
21 Apr 5.9 05:20:28 50° NNW 05:20:28 50° NNW 05:24:30 10° NNW visible
22 Apr 5.6 05:08:20 56° N 05:08:20 56° N 05:12:37 10° NNW visible
23 Apr 5.5 04:56:12 54° NNE 04:56:12 54° NNE 05:00:40 10° N visible
23 Apr 7.9 06:38:12 11° WNW 06:38:12 11° WNW 06:38:36 10° WNW visible
24 Apr 5.7 04:44:04 46° NE 04:44:04 46° NE 04:48:39 10° N visible
24 Apr 7.6 06:26:04 15° WNW 06:26:04 15° WNW 06:27:46 10° NW visible
25 Apr 5.9 04:31:57 37° ENE 04:31:57 37° ENE 04:36:34 10° N visible
25 Apr 7.3 06:13:56 20° WNW 06:13:56 20° WNW 06:16:30 10° NW visible
26 Apr 6.2 04:19:49 29° ENE 04:19:49 29° ENE 04:24:24 10° N visible
26 Apr 7.0 06:01:48 26° WNW 06:01:48 26° WNW 06:05:02 10° NW visible
27 Apr 6.5 04:07:41 22° ENE 04:08:00 22° ENE 04:12:08 10° NNE visible
27 Apr 6.6 05:49:41 34° WNW 05:49:41 34° WNW 05:53:26 10° NNW visible
28 Apr 6.8 03:55:33 17° ENE 03:56:14 17° ENE 03:59:42 10° NNE visible
28 Apr 6.1 05:37:33 44° WNW 05:37:33 44° WNW 05:41:44 10° NNW visible
29 Apr 7.0 03:43:25 13° ENE 03:44:30 13° ENE 03:46:58 10° NE visible
29 Apr 5.7 05:25:25 57° NW 05:25:25 57° NW 05:29:57 10° NNW visible
